ZKJEE NZNS-NZWB

Flight info

Callsign ZKJEE
Flight time 0h 25m
Altitude 9000
Route LUBSI
Aircraft DHC6/L-SDFGR/G

Departure

Time 2026-04-18 00:15
Airport Nelson Airport (NZNS)

Arrival

Time 2026-04-18 00:41
Airport Woodbourne Airport (NZWB)
Time Latitude Longitude Altitude Speed Heading
2026-04-18 00:11 -41.30124 173.21915 15 ft 0 kts 41°
2026-04-18 00:14 -41.30123 173.21915 15 ft 0 kts 41°
2026-04-18 00:14 -41.30029 173.22024 16 ft 60 kts 41°
2026-04-18 00:14 -41.29542 173.22587 46 ft 113 kts 41°
2026-04-18 00:15 -41.28954 173.23268 377 ft 111 kts 40°
2026-04-18 00:15 -41.28368 173.23952 700 ft 118 kts 40°
2026-04-18 00:15 -41.27731 173.24707 1045 ft 130 kts 37°
2026-04-18 00:15 -41.26892 173.25263 1421 ft 137 kts 21°
2026-04-18 00:16 -41.26007 173.25809 1797 ft 140 kts 21°
2026-04-18 00:16 -41.25143 173.26375 2148 ft 141 kts 18°
2026-04-18 00:16 -41.24266 173.27050 2488 ft 149 kts 21°
2026-04-18 00:16 -41.23371 173.27779 2846 ft 152 kts 21°
2026-04-18 00:17 -41.22471 173.28524 3199 ft 155 kts 21°
2026-04-18 00:17 -41.21552 173.29296 3554 ft 156 kts 21°
2026-04-18 00:17 -41.20634 173.30080 3907 ft 157 kts 21°
2026-04-18 00:17 -41.19725 173.30870 4256 ft 158 kts 21°
2026-04-18 00:18 -41.18804 173.31683 4610 ft 158 kts 22°
2026-04-18 00:18 -41.17953 173.32442 4937 ft 159 kts 22°
2026-04-18 00:18 -41.17222 173.33633 5274 ft 179 kts 61°
2026-04-18 00:18 -41.17252 173.35313 5625 ft 190 kts 108°
2026-04-18 00:19 -41.18073 173.36664 5994 ft 186 kts 145°
2026-04-18 00:19 -41.19109 173.37657 6346 ft 186 kts 150°
2026-04-18 00:19 -41.20191 173.38626 6700 ft 187 kts 151°
2026-04-18 00:19 -41.21264 173.39574 7047 ft 187 kts 151°
2026-04-18 00:20 -41.22357 173.40545 7400 ft 188 kts 150°
2026-04-18 00:20 -41.23445 173.41518 7751 ft 189 kts 150°
2026-04-18 00:20 -41.24532 173.42493 8101 ft 189 kts 150°
2026-04-18 00:20 -41.25634 173.43476 8453 ft 190 kts 150°
2026-04-18 00:21 -41.26737 173.44451 8791 ft 192 kts 150°
2026-04-18 00:21 -41.27887 173.45458 8945 ft 204 kts 149°
2026-04-18 00:21 -41.29097 173.46531 8997 ft 213 kts 149°
2026-04-18 00:21 -41.30352 173.47645 9002 ft 218 kts 149°
2026-04-18 00:22 -41.31609 173.48756 9000 ft 222 kts 149°
2026-04-18 00:22 -41.32917 173.49906 9002 ft 225 kts 149°
2026-04-18 00:22 -41.34226 173.51056 9001 ft 226 kts 149°
2026-04-18 00:22 -41.35543 173.52215 9001 ft 227 kts 149°
2026-04-18 00:23 -41.36844 173.53383 9000 ft 227 kts 148°
2026-04-18 00:23 -41.38150 173.54578 9000 ft 228 kts 147°
2026-04-18 00:23 -41.39443 173.55812 9000 ft 228 kts 145°
2026-04-18 00:23 -41.40699 173.57115 9000 ft 228 kts 142°
2026-04-18 00:24 -41.41873 173.58527 9000 ft 228 kts 135°
2026-04-18 00:24 -41.42916 173.60117 9000 ft 228 kts 126°
2026-04-18 00:24 -41.43773 173.61882 9000 ft 227 kts 116°
2026-04-18 00:24 -41.44468 173.63761 9001 ft 225 kts 110°
2026-04-18 00:25 -41.45096 173.65678 9000 ft 225 kts 109°
2026-04-18 00:25 -41.45737 173.67583 8999 ft 226 kts 111°
2026-04-18 00:25 -41.46408 173.69480 8998 ft 226 kts 108°
2026-04-18 00:25 -41.46634 173.71469 9008 ft 213 kts 78°
2026-04-18 00:26 -41.46472 173.73413 9004 ft 210 kts 71°
2026-04-18 00:26 -41.46243 173.75327 9001 ft 210 kts 70°
2026-04-18 00:26 -41.46014 173.77251 9000 ft 210 kts 71°
2026-04-18 00:26 -41.45799 173.79180 9000 ft 211 kts 71°
2026-04-18 00:27 -41.45599 173.81117 9000 ft 211 kts 72°
2026-04-18 00:27 -41.45415 173.83074 9000 ft 212 kts 73°
2026-04-18 00:27 -41.45237 173.85034 9000 ft 212 kts 73°
2026-04-18 00:27 -41.45077 173.86982 9000 ft 212 kts 74°
2026-04-18 00:28 -41.44921 173.88934 9000 ft 212 kts 74°
2026-04-18 00:28 -41.44766 173.90878 9000 ft 212 kts 73°
2026-04-18 00:28 -41.44613 173.92847 9000 ft 213 kts 74°
2026-04-18 00:28 -41.44466 173.94799 9000 ft 213 kts 74°
2026-04-18 00:29 -41.44318 173.96761 9000 ft 213 kts 74°
2026-04-18 00:29 -41.44173 173.98714 9000 ft 213 kts 74°
2026-04-18 00:29 -41.44033 174.00704 9000 ft 213 kts 74°
2026-04-18 00:29 -41.43890 174.02641 9000 ft 213 kts 74°
2026-04-18 00:30 -41.43743 174.04619 9000 ft 213 kts 74°
2026-04-18 00:30 -41.43595 174.06577 9000 ft 212 kts 73°
2026-04-18 00:30 -41.43441 174.08509 9000 ft 213 kts 73°
2026-04-18 00:30 -41.43292 174.10468 9000 ft 213 kts 73°
2026-04-18 00:31 -41.43137 174.12410 9000 ft 213 kts 73°
2026-04-18 00:31 -41.42985 174.14405 9000 ft 213 kts 73°
2026-04-18 00:31 -41.42831 174.16350 8999 ft 214 kts 74°
2026-04-18 00:31 -41.43073 174.18347 8993 ft 229 kts 109°
2026-04-18 00:32 -41.44141 174.19956 8999 ft 232 kts 149°
2026-04-18 00:32 -41.45607 174.20532 9000 ft 218 kts 187°
2026-04-18 00:32 -41.47026 174.20085 9014 ft 203 kts 213°
2026-04-18 00:32 -41.48250 174.19394 8949 ft 180 kts 217°
2026-04-18 00:33 -41.49406 174.18803 8647 ft 172 kts 219°
2026-04-18 00:33 -41.50113 174.17767 8334 ft 137 kts 265°
2026-04-18 00:33 -41.50221 174.16580 8055 ft 125 kts 280°
2026-04-18 00:33 -41.50225 174.15426 7755 ft 124 kts 281°
2026-04-18 00:34 -41.50225 174.14282 7457 ft 124 kts 280°
2026-04-18 00:34 -41.50229 174.13512 7256 ft 125 kts 279°
2026-04-18 00:34 -41.50250 174.11961 6855 ft 125 kts 278°
2026-04-18 00:34 -41.50267 174.11182 6654 ft 126 kts 277°
2026-04-18 00:35 -41.50315 174.09625 6255 ft 127 kts 276°
2026-04-18 00:35 -41.50344 174.08837 6055 ft 127 kts 276°
2026-04-18 00:35 -41.50413 174.07263 5656 ft 128 kts 275°
2026-04-18 00:35 -41.50473 174.06081 5358 ft 129 kts 274°
2026-04-18 00:36 -41.50515 174.05273 5154 ft 129 kts 274°
2026-04-18 00:36 -41.50587 174.04074 4854 ft 130 kts 273°
2026-04-18 00:36 -41.50658 174.02886 4557 ft 130 kts 272°
2026-04-18 00:36 -41.50738 174.01682 4257 ft 130 kts 272°
2026-04-18 00:37 -41.50815 174.00475 3956 ft 130 kts 272°
2026-04-18 00:37 -41.50904 173.99280 3656 ft 129 kts 271°
2026-04-18 00:37 -41.50994 173.98131 3392 ft 115 kts 271°
2026-04-18 00:37 -41.51072 173.97128 3083 ft 103 kts 272°
2026-04-18 00:38 -41.51137 173.96207 2777 ft 97 kts 273°
2026-04-18 00:38 -41.51197 173.95380 2506 ft 84 kts 273°
2026-04-18 00:38 -41.51256 173.94628 2198 ft 79 kts 273°
2026-04-18 00:38 -41.51305 173.93822 1677 ft 112 kts 276°
2026-04-18 00:39 -41.51381 173.92897 1608 ft 81 kts 275°
2026-04-18 00:39 -41.51434 173.92132 1293 ft 85 kts 277°
2026-04-18 00:39 -41.51491 173.91351 988 ft 84 kts 275°
2026-04-18 00:39 -41.51529 173.90566 708 ft 86 kts 272°
2026-04-18 00:40 -41.51555 173.89702 437 ft 95 kts 266°
2026-04-18 00:40 -41.51622 173.88883 349 ft 86 kts 263°
2026-04-18 00:40 -41.51702 173.88076 190 ft 87 kts 263°
2026-04-18 00:40 -41.51749 173.87313 115 ft 73 kts 264°
2026-04-18 00:41 -41.51780 173.86933 115 ft 6 kts 263°
2026-04-18 00:41 -41.51780 173.86931 115 ft 0 kts 263°